Weather History for Salina, KS

Change the Weather History Date:

Thursday, July 18, 2013

  Actual Average Record
Temperature  
Mean Temperature 82 °F 82 °F  
Max Temperature 94 °F 93 °F 116 °F (1936)
Min Temperature 69 °F 70 °F 56 °F (1908)
Degree Days  
Heating Degree Days 0 0  
Month to date heating degree days 0 0  
Since 1 June heating degree days 7 7  
Since 1 July heating degree days 0 0  
Cooling Degree Days 17 16  
Month to date cooling degree days 293 284  
Year to date cooling degree days 821 737  
Since 1 June cooling degree days 680 609  
Growing Degree Days 31 (Base 50)    
Moisture  
Dew Point 67 °F    
Average Humidity 67    
Maximum Humidity 97    
Minimum Humidity 36    
Precipitation  
Precipitation 0.00 in 0.14 in 1.15 in (2008)
Month to date precipitation 1.92 2.66  
Year to date precipitation 17.40 18.76  
Sea Level Pressure  
Sea Level Pressure 30.08 in    
Wind  
Wind Speed 12 mph (South)    
Max Wind Speed 24 mph    
Max Gust Speed 32 mph    
Visibility 10 miles    
Events      
T = Trace of Precipitation, MM = Missing Value Source: NWS Daily Summary

Daily Weather History Graph

Daily Weather History Graph

Search for Another Location

Airport:

Trip Planner

Search our weather history database for the weather conditions in past years. The results will help you decide how hot, cold, wet, or windy it might be!

Date:

Astronomy

Jul. 18, 2013 Rise Set
Actual Time 6:20 AM CDT 8:52 PM CDT
Civil Twilight 5:49 AM CDT 9:23 PM CDT
Nautical Twilight 5:11 AM CDT 10:01 PM CDT
Astronomical Twilight 4:28 AM CDT 10:44 PM CDT
Moon 4:51 PM CDT (7/18) 2:11 AM CDT (7/18)
Length of Visible Light 15h 34m
Length of Day
14h 32m
Waxing Gibbous, 77% of the Moon is Illuminated
Jul 18
Waxing Gibbous
Jul 22
Full
Jul 29
Last Quarter
Aug 6
New
Aug 14
First Quarter

Hourly Weather History & Observations

Time (CDT) Temp. Heat Index Dew Point Humidity Pressure Visibility Wind Dir Wind Speed Gust Speed Precip Events Conditions
12:53 AM 73.0 °F - 69.1 °F 87% 30.17 in 10.0 mi South 4.6 mph - N/A   Clear
1:53 AM 72.0 °F - 69.1 °F 91% 30.17 in 10.0 mi South 6.9 mph - N/A   Clear
2:53 AM 73.0 °F - 69.1 °F 87% 30.17 in 10.0 mi SE 4.6 mph - N/A   Clear
3:53 AM 72.0 °F - 68.0 °F 87% 30.16 in 10.0 mi SSE 5.8 mph - N/A   Clear
4:53 AM 70.0 °F - 68.0 °F 93% 30.16 in 8.0 mi SSE 6.9 mph - N/A   Clear
5:53 AM 69.1 °F - 66.9 °F 93% 30.16 in 6.0 mi South 5.8 mph - N/A   Clear
6:53 AM 70.0 °F - 66.9 °F 90% 30.16 in 8.0 mi SSE 4.6 mph - N/A   Clear
7:53 AM 73.9 °F - 69.1 °F 85% 30.16 in 10.0 mi South 4.6 mph - N/A   Clear
8:53 AM 79.0 °F - 69.1 °F 72% 30.15 in 10.0 mi SSW 11.5 mph - N/A   Clear
9:53 AM 84.0 °F 88.4 °F 70.0 °F 63% 30.14 in 10.0 mi SW 13.8 mph - N/A   Clear
10:53 AM 87.1 °F 91.3 °F 69.1 °F 55% 30.13 in 10.0 mi SSW 18.4 mph - N/A   Scattered Clouds
11:53 AM 88.0 °F 91.4 °F 68.0 °F 51% 30.11 in 10.0 mi SSW 17.3 mph 23.0 mph N/A   Partly Cloudy
12:53 PM 91.0 °F 93.8 °F 66.0 °F 44% 30.09 in 10.0 mi South 16.1 mph 26.5 mph N/A   Scattered Clouds
1:53 PM 91.9 °F 95.4 °F 66.9 °F 44% 30.06 in 10.0 mi SSW 20.7 mph 31.1 mph N/A   Scattered Clouds
2:53 PM 91.0 °F 93.8 °F 66.0 °F 44% 30.05 in 10.0 mi SSW 18.4 mph 26.5 mph N/A   Scattered Clouds
3:53 PM 93.9 °F 96.1 °F 64.9 °F 38% 30.02 in 10.0 mi South 21.9 mph 31.1 mph N/A   Partly Cloudy
4:53 PM 93.9 °F 95.6 °F 64.0 °F 37% 30.00 in 10.0 mi South 21.9 mph 29.9 mph N/A   Partly Cloudy
5:53 PM 93.0 °F 94.2 °F 63.0 °F 37% 29.98 in 10.0 mi SSW 16.1 mph 26.5 mph N/A   Clear
6:53 PM 91.9 °F 92.9 °F 63.0 °F 38% 29.95 in 10.0 mi South 15.0 mph 23.0 mph N/A   Clear
7:53 PM 89.1 °F 90.3 °F 64.0 °F 43% 29.95 in 10.0 mi South 11.5 mph - N/A   Clear
8:53 PM 84.0 °F 85.4 °F 64.0 °F 51% 29.96 in 10.0 mi South 8.1 mph - N/A   Clear
9:53 PM 79.0 °F - 64.9 °F 62% 29.97 in 10.0 mi SSE 6.9 mph - N/A   Clear
10:53 PM 79.0 °F - 64.9 °F 62% 29.99 in 10.0 mi South 6.9 mph - N/A   Clear
11:53 PM 77.0 °F - 64.9 °F 66% 29.99 in 10.0 mi South 5.8 mph - N/A   Clear